This is the latest recevied weather packets stored in our database for station/object WX9WTF. If no packets are shown the sender has not sent any weather packets the latest 10 day(s).
| Time | Temp. | Humidity | Pressure | Rain* | Wind** | Luminosity | Snow |
|---|---|---|---|---|---|---|---|
| 1777656733 | 16.67° C | 40% | 1019.7 hPa | 0 mm | - | 884 W/m² | - |
| 1777656429 | 16.67° C | 42% | 1019.9 hPa | 0 mm | - | 881 W/m² | - |
| 1777656124 | 16.11° C | 45% | 1019.9 hPa | 0 mm | - | 874 W/m² | - |
| 1777655820 | 16.67° C | 45% | 1019.8 hPa | 0 mm | - | 865 W/m² | - |
| 1777655517 | 16.67° C | 37% | 1019.8 hPa | 0 mm | - | 878 W/m² | - |
| 1777655214 | 16.11° C | 43% | 1020 hPa | 0 mm | - | 865 W/m² | - |
| 1777654911 | 16.11° C | 44% | 1020 hPa | 0 mm | - | 856 W/m² | - |
| 1777654609 | 16.11° C | 40% | 1020 hPa | 0 mm | - | 852 W/m² | - |
| 1777654305 | 16.11° C | 45% | 1019.9 hPa | 0 mm | - | 846 W/m² | - |
| 1777654004 | 16.11° C | 45% | 1020 hPa | 0 mm | - | 840 W/m² | - |
| 1777653700 | 16.67° C | 48% | 1019.8 hPa | 0 mm | - | 832 W/m² | - |
| 1777653397 | 16.67° C | 44% | 1019.8 hPa | 0 mm | - | 823 W/m² | - |
| 1777653094 | 16.67° C | 42% | 1019.9 hPa | 0 mm | - | 817 W/m² | - |
| 1777652789 | 16.11° C | 47% | 1020 hPa | 0 mm | - | 808 W/m² | - |
| 1777652487 | 16.11° C | 38% | 1020 hPa | 0 mm | - | 800 W/m² | - |
| 1777652184 | 15.56° C | 38% | 1019.8 hPa | 0 mm | - | 789 W/m² | - |
| 1777651881 | 16.11° C | 46% | 1019.8 hPa | 0 mm | - | 779 W/m² | - |
| 1777651577 | 15.56° C | 43% | 1019.9 hPa | 0 mm | - | 767 W/m² | - |
| 1777651275 | 16.11° C | 46% | 1019.6 hPa | 0 mm | - | 754 W/m² | - |
| 1777650971 | 16.11° C | 45% | 1019.7 hPa | 0 mm | - | 742 W/m² | - |
| 1777650668 | 16.11° C | 46% | 1019.9 hPa | 0 mm | - | 728 W/m² | - |
| 1777650366 | 15.56° C | 43% | 1019.7 hPa | 0 mm | - | 713 W/m² | - |
| 1777650062 | 15.56° C | 49% | 1019.8 hPa | 0 mm | - | 697 W/m² | - |
| 1777649760 | 16.11° C | 55% | 1019.8 hPa | 0 mm | - | 687 W/m² | - |
| 1777649456 | 15.56° C | 45% | 1020 hPa | 0 mm | - | 678 W/m² | - |
* Rain latest hour (hover to see other rain measurements)
** Current wind speed in m/s (hover to see current wind gust speed)